Weather in Loudi

China     27°44′13″N   111°59′34″E
temp.,
°C
wind,
m/s
gust,
m/s
humid.,
%
clouds,
%
prec.,
mm/h
press.,
hPa
HPBL,
m
17 may, tue
tue1723:00+16ene018047 0.0 101711
02:00+15wnw118399 0.0 101610
05:00+14wsw008589 0.0 101511
08:00+17wsw1176100 0.0 1017206
11:00+21sw1168100 0.0 1016550
14:00+23s2256100 0.0 10141054
17:00+21s2273100 0.0 1014111
20:00+18e1177100 0.0 101411
18 may, wed
wed1823:00+18wsw1179100 0.0 101611
02:00+17nw0182100 0.0 101411
05:00+17s1183100 0.0 101411
08:00+17wsw1185100 0.0 101612
11:00+19e1180100 0.0 1016135
14:00+19n0180100 0.0 1014136
17:00+18ne1183100 0.0 101323
20:00+17n228197 0.0 101534
19 may, thu
thu1923:00+16nnw2286100 0.1 101787
02:00+16nw1293100 0.9 101597
05:00+16n1195100 1.2 101569
08:00+16ne1195100 2.0 1016126
11:00+16ne1192100 0.4 1016215
14:00+19nne228691 0.4 1014516
17:00+16nne2396100 1.3 1013195
20:00+15ne1398100 3.2 1014136
20 may, fri
fri2023:00+15n1199100 7.6 101489
02:00+16nnw1198100 13.3 101360
05:00+16ene1198100 2.9 101235
08:00+16ese0098100 4.6 101388
11:00+17wnw0196100 1.5 1013146
14:00+17wsw1198100 5.4 101299
17:00+17sw1197100 0.5 101040
20:00+16wsw119793 0.6 101111
21 may, sat
sat2123:00+16wsw1196100 0.0 101111
02:00+15nw119658 0.0 101011
05:00+15wnw0095100 0.0 101011
08:00+18nw1189100 0.0 1011206
11:00+23n1272100 0.0 10101034
14:00+24ne2367100 0.1 1009987
17:00+24ene236899 0.1 1007866
20:00+20ene118497 0.1 100811